星链-31194 (STARLINK-31194 )

导读 | 豆包AI

STARLINK-31194是美国太空探索技术公司(SpaceX)星链互联网卫星星座的一员,于2024年1月15日由美国发射升空,属于星链星座扩容部署的批次卫星之一。它采用低轨道设计,旨在为全球范围提供高速卫星互联网接入服务,进一步完善星链系统全球覆盖能力,增强星座整体服务容量。

基本信息
目录编号:
58792
目录名称:
STARLINK-31194
国际标识:
2024-012F
轨道中心:
EARTH
卫星名称:
星链-31194
卫星全名:
星链-31194 (STARLINK-31194 )
卫星状态:
已陨落 最后检测时间 2024-06-06
发射日期:
2024-01-15 UTC
国别 :
美国 (US)
星等 :
--
轨道信息
数据来源 国际轨道数据
星历时间: 2024-06-06T23:36:01+0800
轨道信息已过期718天
半长轴: 6562.313km
偏心率: 0.0024073
轨道倾角: 42.964°
近地点辐角 53.452°
升交点赤经 132.979°
平近点角 55.002°
近地点: 168.38km
远地点: 199.976km
周期: 88.175分钟
每日圈数: 16.331173
详细信息
固有亮度:
5
最大亮度:
0.3
卫星平台:
Starlink v2.0 mini
覆盖范围:
全球
运营商:
太空探索技术公司
运营商所在国:
美国
制造商(研发单位):
太空探索技术公司
制造商所在国:
美国
使用方式:
暂无
卫星简介
星链(Starlink)计划是由太空探索技术公司(SpaceX)提出的一个巨型低轨卫星互联网星座项目,计划在2019年至2024年间在太空搭建由约1.2万颗卫星组成的“星链”网络,其中1584颗将部署在地球上空550千米处的近地轨道,并从2020年开始工作。该卫星已陨落。